Location: Newark
(36.1358°N, 115.1208°W)
Time: 21:22:09
(UTC+00:00)

Vanguard 1 Rocket - Pass Details

Date: 26 February 2020
Orbit: 650 x 4226 km, 34.3° (Epoch: 09 April)

Event Time Altitude Azimuth Distance (km) Brightness Sun altitude
Rises 07:37:24 0° 231° (SW) 7,049 - -62.5°
Reaches altitude 10° 07:43:07 10° 226° (SW) 5,446 - -62.6°
Maximum altitude 07:56:09 45° 161° (SSE) 2,112 - -62.7°
Drops below altitude 10° 08:03:09 10° 90° (E) 2,984 - -62.6°
Sets 08:05:22 0° 83° (E) 3,681 - -62.6°
